Temperature
22 20 20 20 20 22 22 21 20 20 20 19 18 17 17 17 17 17 17 17 18 18 18 18 18 18 18 18 18 18 18 18 18 18 17 17 17 17 17 17 16 16 16 16
21 21 22 22 22 21 21 21 20 20 20 19 18 17 17 17 16 17 17 17 18 18 18 18 18 18 18 18 18 18 18 18 18 18 17 17 17 17 16 16 16 16 15 15
22 22 23 23 23 22 22 21 21 20 19 18 18 18 17 17 17 17 17 17 18 18 18 18 18 19 19 18 18 18 18 18 18 17 17 17 16 16 16 16 15 15 15 15
22 23 23 23 23 23 21 21 21 20 18 17 18 17 17 16 16 17 17 17 18 18 18 18 19 19 19 18 18 18 18 18 17 17 17 16 16 16 15 15 15 14 14 14
23 23 23 23 23 23 21 20 20 19 17 17 16 17 16 16 16 17 17 17 18 18 18 19 19 18 18 18 18 18 17 17 17 16 16 16 15 15 15 14 14 14 13 13
23 23 23 23 23 22 20 19 18 16 16 17 17 16 17 16 17 17 17 18 19 19 18 18 18 18 18 18 18 17 17 17 16 16 15 15 15 14 14 14 13 13 13 13
23 23 23 23 22 21 20 18 17 18 16 17 16 16 16 17 17 17 17 18 19 19 19 19 18 18 18 18 18 17 17 16 16 15 15 14 14 13 13 13 12 12 12 12
22 22 23 23 22 21 20 19 18 19 18 17 16 16 17 18 18 18 18 19 19 19 19 19 19 19 18 18 17 17 16 16 15 15 14 14 13 13 12 12 12 11 11 11
21 22 23 23 23 21 20 18 17 16 16 17 17 17 17 18 18 17 18 18 19 19 19 19 19 18 18 18 17 16 16 15 15 14 13 13 12 12 12 11 11 11 11 10
21 22 23 23 23 21 20 17 15 16 17 18 18 17 17 19 19 18 17 18 19 19 19 19 19 18 18 17 16 16 15 14 14 13 13 12 12 11 11 11 10 10 10 10
21 21 22 22 22 22 20 18 15 14 15 16 17 17 17 18 18 18 18 19 20 19 19 19 18 18 17 16 16 15 14 14 13 13 12 11 11 11 10 10 10 9 9 9
19 18 19 21 21 21 21 19 16 18 17 15 16 16 18 17 17 18 19 19 20 19 19 18 18 17 16 16 15 14 14 13 12 12 11 11 10 10 10 9 9 9 9 9
19 18 19 20 20 21 21 19 17 15 14 14 16 18 18 17 17 18 19 19 19 19 18 18 17 17 16 15 14 14 13 12 12 11 11 10 10 10 9 9 9 9 9 9
19 18 19 20 20 21 21 21 17 16 16 16 16 18 18 18 17 18 19 19 19 19 18 18 17 16 15 14 14 13 12 12 11 11 10 10 9 9 9 9 8 8 8 8
19 20 20 19 20 21 21 21 19 18 17 17 18 17 18 17 17 18 18 19 18 18 18 17 17 16 15 14 13 13 12 11 11 10 10 9 9 9 8 8 8 8 8 8
18 20 20 21 21 21 21 21 21 20 19 18 19 18 17 17 18 18 18 18 18 18 18 17 16 15 14 14 13 12 11 11 10 10 9 9 9 8 8 8 8 8 8 8
17 18 19 19 20 21 21 21 21 21 20 18 19 18 17 16 16 18 18 19 19 18 18 17 16 15 14 13 12 12 11 10 10 9 9 9 8 8 8 8 8 8 8 8
16 16 16 17 20 21 20 19 20 20 20 18 18 18 16 17 19 19 19 19 19 18 17 16 15 14 14 13 12 11 11 10 10 9 9 9 8 8 8 8 8 8 8 8
15 16 15 16 19 20 20 20 19 20 20 19 18 17 17 17 17 18 19 19 18 18 17 16 15 14 13 12 12 11 10 10 9 9 9 8 8 8 8 8 8 8 8 7
15 15 16 16 19 19 20 20 20 20 20 19 18 16 16 16 15 16 20 19 18 17 17 16 15 14 13 12 11 11 10 10 9 9 9 8 8 8 8 8 8 8 7 7
17 16 17 16 18 18 19 20 20 20 19 21 20 19 17 17 18 20 20 19 18 17 16 15 14 14 13 12 11 11 10 9 9 9 9 8 8 8 8 8 8 7 7 7
17 17 16 15 18 18 20 19 19 20 22 23 22 21 21 21 21 20 20 19 18 17 16 15 14 14 13 12 11 11 10 9 9 9 9 8 8 8 8 8 8 7 7 7
16 16 16 16 18 19 20 21 23 23 23 23 23 22 22 21 21 20 19 19 18 17 16 15 14 14 13 12 11 11 10 9 9 9 9 8 8 8 8 8 8 7 7 7
18 15 15 16 17 20 21 22 23 23 24 24 23 23 22 21 21 20 19 19 18 17 16 15 14 14 13 12 11 10 10 9 9 9 9 9 8 8 8 8 8 7 7 7
18 18 17 17 17 20 23 23 24 24 23 23 23 22 22 21 21 20 19 19 18 17 16 15 14 14 13 12 11 11 10 10 9 9 9 9 8 8 8 8 8 7 7 7
15 16 17 17 19 18 21 23 23 23 23 23 23 22 22 21 21 20 19 19 18 17 16 15 14 14 13 12 11 11 10 10 9 9 9 9 8 8 8 8 8 8 7 7
Wind_Speed
2 2 4 8 9 7 4 2 1 1 2 4 6 4 2 2 2 3 3 3 4 3 3 4 3 4 4 4 5 5 5 4 4 3 3 2 1 0 0 1 1 1 2 2
3 5 8 5 4 5 4 2 1 2 3 4 4 3 1 0 1 2 3 2 3 3 2 3 3 3 3 3 4 4 5 4 4 3 2 2 2 1 1 1 2 2 3 3
7 7 3 1 2 3 3 4 4 4 4 5 3 2 1 1 1 1 1 3 3 5 6 5 3 3 3 4 4 4 4 3 3 2 2 2 2 2 1 2 2 3 4 4
6 5 2 2 3 4 2 2 4 5 5 3 3 1 3 2 2 2 2 2 3 4 4 4 5 4 5 5 4 3 2 1 1 2 2 2 2 2 3 2 3 4 5 5
5 2 1 2 3 3 3 5 7 5 5 3 5 2 5 1 2 4 5 5 5 5 5 6 6 6 5 4 3 2 1 1 0 1 1 1 1 2 2 2 4 5 5 5
5 2 2 2 3 4 7 7 7 6 5 3 2 1 4 3 5 4 4 5 5 5 5 6 5 4 3 3 3 3 2 2 1 1 1 2 3 4 4 4 4 5 4 5
5 4 1 2 3 3 5 6 5 5 4 3 2 1 7 6 6 6 6 6 6 5 5 5 5 4 4 3 3 3 2 2 2 2 2 3 4 4 5 5 5 5 4 4
1 6 3 1 4 5 3 6 6 3 3 4 2 3 7 5 5 5 6 5 4 5 5 5 5 5 4 3 3 3 3 2 2 2 3 3 3 3 4 5 5 5 5 6
5 5 3 1 1 6 6 3 6 7 2 2 5 6 7 2 2 3 4 4 5 5 5 4 3 3 3 3 2 3 3 2 2 2 3 4 4 4 5 6 5 5 6 6
7 3 4 3 4 5 4 8 6 5 4 1 5 5 5 6 5 4 4 6 6 4 3 3 2 2 2 1 1 0 1 2 2 3 3 3 4 5 5 5 6 6 6 6
4 4 4 3 1 2 4 5 6 5 5 5 3 7 7 8 7 6 6 5 5 5 4 3 2 1 1 0 0 1 1 2 3 3 3 4 5 5 5 5 7 7 7 7
4 5 1 4 4 1 2 5 7 5 3 4 4 7 5 7 7 7 6 4 3 4 3 3 2 1 0 1 2 2 2 3 4 4 4 5 5 5 6 7 7 7 7 7
6 5 3 7 7 3 1 3 4 6 5 5 4 7 4 0 2 4 4 3 3 4 4 2 1 1 2 3 3 3 4 4 4 4 4 5 6 6 7 7 7 7 7 8
6 5 6 6 7 4 4 3 6 6 5 5 8 8 5 4 4 4 4 4 4 4 4 3 2 3 4 4 4 4 5 5 5 4 5 6 7 7 7 8 8 8 8 8
5 4 6 7 6 4 5 6 7 7 8 8 8 8 10 9 8 6 5 6 5 5 5 5 5 4 4 4 5 5 5 5 4 5 6 7 7 7 7 8 8 8 8 9
4 5 3 3 3 4 5 7 5 6 5 6 4 7 7 4 5 5 7 8 7 7 7 7 6 5 5 6 5 5 6 5 4 5 7 7 7 7 8 8 9 9 9 9
4 7 4 4 5 3 5 5 5 5 5 7 8 8 4 5 8 9 9 9 9 9 8 8 7 7 7 6 5 6 6 5 5 6 7 7 8 8 9 9 9 9 9 9
8 6 5 2 2 4 8 4 5 4 5 6 6 5 7 8 5 5 8 10 10 9 8 8 7 6 5 5 5 5 5 5 6 7 8 8 8 9 9 9 10 10 9 9
5 8 5 4 2 6 8 3 6 6 5 6 7 6 4 4 4 3 7 9 10 9 8 7 6 5 5 6 5 5 5 6 6 7 8 9 9 9 10 10 10 9 9 10
5 5 6 5 4 6 9 4 5 5 5 7 9 9 8 8 3 7 8 9 10 9 6 6 5 4 5 6 4 4 6 6 7 8 9 9 9 9 10 11 10 9 8 10
3 3 4 5 5 8 8 4 7 4 9 7 11 10 11 11 10 6 5 8 9 8 7 6 5 5 6 5 3 5 6 7 8 8 8 9 9 9 10 9 8 9 9 9
5 4 4 5 3 8 4 9 10 11 4 6 11 11 13 12 8 6 6 8 8 7 7 6 6 6 5 4 3 6 7 8 7 7 8 9 9 8 8 9 9 9 8 9
6 7 6 8 8 6 6 9 7 4 5 7 10 10 13 11 9 8 8 8 8 9 7 6 6 6 6 5 5 7 7 7 7 7 9 9 9 9 8 8 9 9 7 7
3 3 4 4 8 7 7 7 6 7 8 7 9 10 11 11 11 10 8 8 8 8 7 6 6 6 6 6 6 7 7 6 6 8 9 8 9 9 9 7 7 7 7 7
5 3 2 5 8 8 7 6 7 6 5 5 6 8 11 12 10 10 9 9 9 8 6 6 7 8 8 6 6 6 6 5 6 8 8 8 8 8 8 8 7 8 7 7
3 4 5 7 8 5 8 7 4 6 8 9 9 8 7 10 10 9 9 8 8 8 6 6 7 8 8 6 7 6 5 4 5 7 8 7 7 7 7 8 9 9 9 11
Wind_Direction
110 84 240 235 209 214 223 242 280 310 57 68 89 106 91 47 67 83 93 114 118 113 115 104 112 118 116 117 119 123 128 135 133 123 126 129 141 184 334 321 330 336 331 331
32 268 247 246 211 200 198 202 216 87 65 84 99 93 101 65 231 205 183 183 151 141 131 136 147 147 148 148 146 147 155 160 157 151 150 152 149 178 217 304 329 324 324 317
215 246 258 228 198 182 198 184 195 156 91 58 73 21 333 313 327 275 217 205 182 174 180 187 187 192 184 184 187 179 180 171 162 142 108 83 61 32 357 318 304 304 311 312
239 258 252 248 236 176 246 221 143 119 100 34 38 314 304 310 327 287 255 235 227 209 191 195 199 210 216 216 208 200 190 172 142 126 133 151 169 218 243 258 281 299 305 305
267 262 255 249 254 164 142 77 91 97 101 68 30 58 296 334 277 258 242 229 227 219 207 210 213 217 224 220 214 210 189 229 245 156 174 190 237 244 268 277 287 295 302 303
254 258 207 214 28 98 120 77 62 55 69 42 341 57 290 249 226 238 231 229 228 220 215 222 226 220 225 212 202 194 196 246 256 235 223 225 251 266 280 284 289 293 298 300
332 328 292 130 90 44 83 85 35 6 14 276 279 241 256 250 227 220 227 233 232 222 214 218 219 219 220 215 209 192 191 244 267 263 265 257 258 260 263 272 277 285 290 289
325 304 283 196 177 177 155 134 152 203 233 288 334 267 258 252 246 233 228 229 226 214 207 209 215 214 213 204 195 185 192 232 268 272 280 279 266 258 261 264 264 268 268 272
185 260 304 17 128 132 131 121 142 124 106 9 311 301 306 258 240 215 216 214 220 217 206 203 202 189 179 173 181 191 198 235 272 283 291 292 287 275 274 278 273 270 269 275
166 232 303 331 77 49 117 137 100 107 130 285 309 296 257 261 237 217 211 214 218 201 193 187 174 162 163 169 184 161 188 250 279 291 288 290 291 287 284 285 283 279 279 279
132 159 312 10 59 162 117 95 98 102 140 148 242 272 227 223 223 219 223 213 200 192 186 173 154 150 149 75 3 308 301 290 295 297 297 300 296 296 296 288 283 283 284 286
127 120 307 295 293 264 151 153 148 145 187 165 177 265 269 237 228 211 210 197 180 170 157 155 160 162 249 301 304 302 299 293 287 289 292 292 293 297 295 290 287 286 284 284
137 107 50 351 344 349 74 136 134 122 117 151 174 263 306 294 192 194 188 175 151 146 147 152 174 254 282 292 298 297 293 288 291 294 296 297 298 296 291 289 289 289 286 287
118 112 157 197 226 241 267 192 154 136 151 193 219 246 277 236 210 199 179 168 158 167 175 194 234 260 276 285 286 286 288 287 290 292 293 291 291 288 287 288 288 288 287 287
116 160 208 234 245 232 243 244 187 189 192 189 228 226 241 223 211 204 183 169 172 196 217 228 239 255 272 279 281 279 283 288 289 291 290 285 287 288 290 291 290 289 288 288
115 163 175 285 281 258 255 257 210 200 193 210 236 253 247 203 157 171 179 180 198 221 234 244 252 259 263 264 270 279 282 285 287 285 284 287 291 294 293 293 292 292 291 289
146 143 141 258 305 360 281 249 207 204 198 178 206 234 184 176 192 196 194 197 210 225 236 243 250 250 253 256 260 266 272 283 288 285 287 290 293 295 294 296 297 293 291 288
145 136 142 164 45 253 252 264 203 195 228 209 221 225 196 202 201 205 195 198 216 227 234 240 242 246 250 250 258 266 275 284 287 289 290 292 295 295 296 296 294 291 289 287
143 136 126 132 182 278 291 239 167 166 251 216 206 207 167 114 72 298 222 204 213 220 223 229 231 231 242 256 263 273 282 288 290 289 291 293 295 296 297 296 294 292 291 292
77 105 121 137 162 233 252 236 157 110 282 228 189 186 161 129 155 254 228 204 216 222 220 226 229 225 245 258 262 269 280 288 285 285 290 293 294 292 292 290 291 290 289 289
71 79 133 161 201 254 251 171 131 161 243 214 187 183 168 181 202 223 201 196 206 213 221 221 219 227 243 255 255 266 278 278 277 285 292 296 294 291 288 286 287 291 293 295
184 165 177 147 185 257 218 148 179 213 222 185 186 184 187 207 219 221 206 205 207 214 223 215 216 239 253 251 238 262 271 272 283 291 295 297 297 296 297 294 295 294 294 297
197 192 188 189 214 245 219 211 231 190 199 200 190 194 193 202 216 214 212 212 215 218 219 212 212 238 258 250 226 250 264 278 289 295 297 299 302 301 297 295 298 301 298 296
271 154 159 249 270 265 257 247 239 209 212 209 192 187 182 198 209 207 209 213 218 219 217 208 206 230 252 255 244 243 264 279 288 295 299 302 305 307 308 303 295 294 297 297
248 185 203 269 281 305 302 255 235 218 211 203 193 188 190 193 201 201 207 213 214 215 213 204 211 228 246 256 257 259 262 273 286 293 298 302 303 303 308 308 297 290 281 272
239 196 198 239 247 228 265 274 239 209 212 203 193 199 200 194 198 197 206 209 208 212 207 209 220 232 245 250 258 265 263 261 277 293 300 303 306 308 309 312 313 294 278 281
Height
1506 1511 1514 1509 1507 1506 1507 1511 1514 1511 1508 1511 1514 1516 1515 1515 1514 1514 1513 1514 1514 1515 1516 1518 1520 1522 1522 1523 1524 1524 1525 1526 1527 1528 1529 1529 1530 1530 1529 1529 1528 1527 1527 1526
1510 1511 1502 1499 1500 1503 1506 1511 1513 1511 1508 1512 1516 1518 1517 1517 1516 1516 1514 1514 1514 1516 1517 1519 1521 1522 1523 1523 1524 1525 1526 1527 1527 1528 1528 1529 1529 1528 1528 1527 1526 1525 1524 1523
1509 1503 1497 1498 1501 1504 1506 1509 1510 1512 1512 1514 1518 1523 1520 1517 1517 1517 1516 1516 1516 1516 1518 1519 1521 1522 1523 1524 1524 1525 1526 1527 1527 1527 1528 1527 1527 1526 1526 1525 1524 1523 1522 1520
1503 1498 1497 1498 1500 1501 1508 1502 1503 1509 1518 1527 1524 1534 1524 1520 1518 1516 1516 1516 1516 1518 1519 1520 1521 1522 1523 1524 1525 1525 1526 1526 1526 1526 1526 1526 1525 1524 1523 1522 1521 1520 1518 1517
1501 1496 1497 1499 1497 1497 1503 1502 1505 1512 1521 1529 1530 1534 1530 1522 1521 1517 1516 1516 1517 1517 1518 1520 1521 1522 1523 1524 1524 1525 1525 1525 1525 1525 1524 1523 1522 1521 1519 1518 1517 1516 1514 1513
1497 1494 1494 1495 1495 1496 1501 1507 1513 1521 1527 1538 1534 1537 1532 1524 1518 1515 1514 1514 1515 1516 1518 1519 1520 1521 1522 1523 1523 1523 1523 1523 1523 1522 1521 1520 1518 1517 1515 1514 1512 1511 1509 1508
1502 1496 1493 1493 1498 1500 1504 1518 1534 1536 1543 1541 1533 1535 1530 1514 1511 1511 1511 1512 1513 1515 1516 1517 1518 1519 1520 1521 1521 1521 1521 1520 1520 1519 1518 1516 1515 1513 1511 1509 1507 1506 1504 1503
1511 1512 1496 1493 1496 1502 1505 1513 1534 1541 1544 1541 1533 1534 1522 1509 1508 1508 1509 1510 1511 1513 1514 1516 1517 1518 1518 1519 1519 1518 1518 1517 1517 1515 1514 1513 1511 1509 1507 1505 1503 1501 1499 1497
1511 1509 1493 1491 1492 1496 1507 1514 1517 1534 1539 1542 1536 1528 1515 1506 1506 1507 1507 1508 1509 1511 1512 1514 1515 1516 1516 1516 1516 1516 1515 1514 1513 1512 1510 1508 1507 1504 1502 1500 1498 1496 1494 1492
1500 1507 1497 1493 1493 1497 1500 1511 1524 1534 1544 1545 1536 1531 1526 1510 1507 1506 1506 1507 1508 1509 1511 1512 1513 1514 1514 1514 1514 1514 1513 1512 1510 1508 1506 1505 1502 1500 1498 1496 1494 1491 1489 1487
1497 1507 1504 1499 1499 1501 1505 1513 1524 1534 1535 1545 1546 1535 1508 1505 1502 1503 1503 1504 1506 1508 1510 1511 1512 1512 1513 1513 1512 1511 1510 1508 1507 1505 1503 1501 1499 1496 1494 1491 1489 1487 1484 1482
1498 1509 1514 1505 1498 1496 1498 1505 1517 1527 1534 1538 1541 1533 1499 1499 1498 1500 1501 1503 1505 1507 1509 1510 1511 1511 1511 1510 1509 1508 1507 1505 1503 1501 1499 1497 1494 1492 1489 1487 1484 1482 1479 1477
1498 1509 1521 1519 1513 1501 1500 1504 1510 1520 1531 1539 1539 1524 1498 1497 1497 1498 1500 1502 1504 1506 1508 1509 1509 1509 1509 1508 1507 1505 1504 1502 1500 1498 1495 1493 1490 1487 1485 1482 1479 1477 1474 1472
1491 1506 1515 1520 1515 1504 1502 1501 1508 1514 1526 1531 1525 1514 1500 1497 1497 1498 1500 1502 1504 1505 1506 1507 1507 1507 1506 1505 1504 1502 1500 1498 1496 1494 1491 1489 1486 1483 1480 1477 1474 1472 1469 1466
1490 1502 1503 1503 1499 1499 1498 1497 1501 1506 1509 1516 1509 1507 1498 1495 1495 1496 1498 1501 1502 1504 1505 1505 1505 1505 1504 1502 1501 1499 1497 1495 1492 1490 1487 1484 1481 1478 1475 1472 1469 1466 1463 1461
1491 1498 1500 1500 1495 1496 1497 1493 1494 1497 1499 1502 1501 1500 1491 1491 1493 1495 1497 1499 1500 1502 1503 1503 1503 1502 1501 1500 1498 1496 1494 1491 1489 1486 1483 1480 1477 1474 1471 1467 1464 1461 1458 1455
1494 1498 1505 1508 1500 1496 1502 1491 1490 1491 1491 1495 1499 1493 1489 1491 1491 1492 1494 1497 1498 1499 1500 1500 1500 1499 1498 1497 1495 1492 1490 1488 1485 1482 1479 1476 1473 1469 1466 1462 1459 1456 1453 1450
1492 1500 1508 1510 1505 1511 1499 1484 1484 1487 1487 1487 1487 1487 1487 1487 1489 1491 1493 1494 1496 1497 1497 1497 1497 1496 1495 1493 1491 1489 1486 1484 1481 1478 1475 1472 1468 1464 1461 1458 1455 1452 1448 1445
1485 1495 1508 1514 1512 1506 1491 1483 1483 1487 1487 1482 1484 1484 1486 1487 1489 1490 1490 1491 1493 1494 1494 1494 1494 1493 1491 1490 1487 1485 1483 1480 1477 1474 1471 1467 1464 1460 1457 1454 1450 1447 1444 1441
1488 1491 1503 1511 1510 1511 1492 1478 1478 1484 1489 1478 1479 1481 1484 1487 1494 1489 1486 1488 1489 1490 1491 1491 1490 1489 1488 1486 1484 1481 1479 1476 1473 1470 1467 1463 1460 1456 1453 1450 1446 1443 1440 1436
1493 1497 1501 1507 1507 1498 1478 1475 1479 1494 1489 1472 1474 1476 1480 1482 1483 1483 1484 1485 1486 1487 1488 1487 1487 1485 1484 1483 1480 1478 1475 1472 1469 1466 1462 1459 1456 1452 1449 1446 1442 1439 1435 1432
1492 1498 1501 1506 1506 1498 1473 1475 1478 1475 1467 1467 1469 1472 1475 1476 1478 1480 1481 1482 1483 1484 1484 1484 1483 1482 1481 1479 1477 1474 1471 1468 1465 1462 1459 1455 1452 1449 1445 1442 1438 1435 1431 1427
1487 1486 1488 1490 1487 1472 1469 1467 1465 1466 1465 1465 1467 1469 1471 1473 1475 1477 1478 1479 1480 1480 1480 1480 1480 1479 1477 1475 1472 1470 1467 1464 1461 1458 1455 1451 1448 1445 1442 1438 1434 1430 1427 1423
1478 1478 1481 1481 1473 1467 1465 1464 1463 1463 1463 1463 1464 1466 1468 1470 1471 1473 1475 1476 1476 1476 1476 1476 1476 1474 1473 1471 1469 1466 1463 1461 1458 1454 1451 1448 1444 1441 1438 1434 1431 1427 1423 1419
1476 1475 1478 1477 1469 1464 1462 1460 1460 1460 1460 1461 1462 1463 1464 1466 1468 1469 1471 1472 1472 1473 1473 1473 1472 1471 1469 1467 1465 1462 1460 1457 1454 1451 1448 1444 1441 1437 1434 1430 1427 1423 1420 1416
1474 1475 1476 1474 1465 1465 1461 1459 1458 1457 1457 1458 1459 1460 1461 1463 1464 1466 1467 1468 1469 1469 1470 1469 1468 1467 1465 1463 1461 1459 1456 1453 1450 1447 1444 1441 1438 1434 1430 1427 1424 1420 1417 1413